Time,TemperatureF,DewpointF,PressureIn,WindDirection,WindDirectionDegrees,WindSpeedMPH,WindSpeedGustMPH,Humidity,HourlyPrecipIn,Conditions,Clouds,dailyrainin,SoftwareType,DateUTC
2013-04-09 00:15:00,51.6,-99.9,30.02,West,272,0.0,2.0,-999,0.00,,,0.00,weatherlink.com 1.10,2013-04-09 04:15:00,
2013-04-09 00:30:00,51.7,-99.9,30.01,West,272,0.0,2.0,-999,0.00,,,0.00,weatherlink.com 1.10,2013-04-09 04:30:00,
2013-04-09 00:45:00,51.9,-99.9,30.01,West,272,0.0,2.0,-999,0.00,,,0.00,weatherlink.com 1.10,2013-04-09 04:45:00,
2013-04-09 01:00:00,51.0,-99.9,30.00,West,272,0.0,1.0,-999,0.00,,,0.00,weatherlink.com 1.10,2013-04-09 05:00:00,
2013-04-09 01:15:00,49.8,-99.9,29.99,West,272,0.0,1.0,-999,0.00,,,0.00,weatherlink.com 1.10,2013-04-09 05:15:00,
2013-04-09 01:30:00,49.4,-99.9,29.98,West,272,0.0,0.0,-999,0.00,,,0.00,weatherlink.com 1.10,2013-04-09 05:30:00,
2013-04-09 01:45:00,48.9,-99.9,29.98,West,272,1.0,2.0,-999,0.00,,,0.00,weatherlink.com 1.10,2013-04-09 05:45:00,
2013-04-09 02:00:00,49.2,-99.9,29.96,West,272,0.0,0.0,-999,0.00,,,0.00,weatherlink.com 1.10,2013-04-09 06:00:00,
2013-04-09 02:15:00,49.4,-99.9,29.95,West,272,0.0,0.0,-999,0.00,,,0.00,weatherlink.com 1.10,2013-04-09 06:15:00,
2013-04-09 02:30:00,49.4,-99.9,29.95,WNW,283,0.0,4.0,-999,0.00,,,0.00,weatherlink.com 1.10,2013-04-09 06:30:00,
2013-04-09 02:46:00,49.5,-99.9,29.95,WNW,283,1.0,2.0,-999,0.00,,,0.00,weatherlink.com 1.10,2013-04-09 06:46:00,
2013-04-09 03:01:00,49.4,-99.9,29.94,WNW,283,0.0,1.0,-999,0.00,,,0.00,weatherlink.com 1.10,2013-04-09 07:01:00,
2013-04-09 03:16:00,49.4,-99.9,29.95,WNW,283,0.0,2.0,-999,0.00,,,0.00,weatherlink.com 1.10,2013-04-09 07:16:00,
2013-04-09 04:16:00,48.3,-99.9,29.93,WNW,283,0.0,0.0,-999,0.00,,,0.00,weatherlink.com 1.10,2013-04-09 08:16:00,
2013-04-09 04:31:00,47.6,-99.9,29.92,WNW,283,0.0,0.0,-999,0.00,,,0.00,weatherlink.com 1.10,2013-04-09 08:31:00,
2013-04-09 04:46:00,47.4,-99.9,29.92,WNW,283,0.0,1.0,-999,0.00,,,0.00,weatherlink.com 1.10,2013-04-09 08:46:00,
2013-04-09 05:01:00,47.3,-99.9,29.92,WNW,283,0.0,1.0,-999,0.00,,,0.00,weatherlink.com 1.10,2013-04-09 09:01:00,
2013-04-09 05:16:00,46.8,-99.9,29.91,WNW,283,0.0,0.0,-999,0.00,,,0.00,weatherlink.com 1.10,2013-04-09 09:16:00,
2013-04-09 05:31:00,47.0,-99.9,29.91,West,280,0.0,3.0,-999,0.00,,,0.00,weatherlink.com 1.10,2013-04-09 09:31:00,
2013-04-09 05:46:00,47.1,-99.9,29.91,South,188,0.0,2.0,-999,0.00,,,0.00,weatherlink.com 1.10,2013-04-09 09:46:00,
2013-04-09 06:02:00,47.3,-99.9,29.91,South,184,0.0,2.0,-999,0.00,,,0.00,weatherlink.com 1.10,2013-04-09 10:02:00,
2013-04-09 06:17:00,47.4,-99.9,29.91,SE,146,0.0,1.0,-999,0.00,,,0.00,weatherlink.com 1.10,2013-04-09 10:17:00,
2013-04-09 06:32:00,47.6,-99.9,29.91,SE,140,1.0,2.0,-999,0.00,,,0.00,weatherlink.com 1.10,2013-04-09 10:32:00,
2013-04-09 06:47:00,47.7,-99.9,29.92,SE,139,0.0,2.0,-999,0.00,,,0.00,weatherlink.com 1.10,2013-04-09 10:47:00,
2013-04-09 07:02:00,48.2,-99.9,29.92,SE,139,0.0,2.0,-999,0.00,,,0.00,weatherlink.com 1.10,2013-04-09 11:02:00,
2013-04-09 07:17:00,48.5,-99.9,29.92,SE,139,0.0,0.0,-999,0.00,,,0.00,weatherlink.com 1.10,2013-04-09 11:17:00,
2013-04-09 07:32:00,49.1,-99.9,29.91,SE,139,0.0,0.0,-999,0.00,,,0.00,weatherlink.com 1.10,2013-04-09 11:32:00,
2013-04-09 07:47:00,50.2,-99.9,29.92,SE,139,0.0,1.0,-999,0.00,,,0.00,weatherlink.com 1.10,2013-04-09 11:47:00,
2013-04-09 08:02:00,51.9,-99.9,29.92,SE,139,0.0,2.0,-999,0.00,,,0.00,weatherlink.com 1.10,2013-04-09 12:02:00,
2013-04-09 08:17:00,54.2,-99.9,29.91,East,91,1.0,2.0,-999,0.00,,,0.00,weatherlink.com 1.10,2013-04-09 12:17:00,
2013-04-09 08:32:00,56.3,-99.9,29.91,East,91,2.0,2.0,-999,0.00,,,0.00,weatherlink.com 1.10,2013-04-09 12:32:00,
2013-04-09 08:47:00,59.3,-99.9,29.91,ENE,77,1.0,4.0,-999,0.00,,,0.00,weatherlink.com 1.10,2013-04-09 12:47:00,
2013-04-09 09:02:00,61.3,-99.9,29.92,ENE,69,1.0,3.0,-999,0.00,,,0.00,weatherlink.com 1.10,2013-04-09 13:02:00,
2013-04-09 09:17:00,63.9,-99.9,29.93,East,88,1.0,2.0,-999,0.00,,,0.00,weatherlink.com 1.10,2013-04-09 13:17:00,
2013-04-09 09:32:00,65.0,-99.9,29.94,East,86,0.0,2.0,-999,0.00,,,0.00,weatherlink.com 1.10,2013-04-09 13:32:00,
2013-04-09 09:47:00,66.6,-99.9,29.95,NNW,335,1.0,3.0,-999,0.00,,,0.00,weatherlink.com 1.10,2013-04-09 13:47:00,
2013-04-09 10:02:00,67.9,-99.9,29.96,North,349,2.0,4.0,-999,0.00,,,0.00,weatherlink.com 1.10,2013-04-09 14:02:00,
2013-04-09 10:18:00,68.4,-99.9,29.97,NW,314,2.0,9.0,-999,0.00,,,0.00,weatherlink.com 1.10,2013-04-09 14:18:00,
2013-04-09 10:32:00,69.4,-99.9,29.98,WNW,295,0.0,6.0,-999,0.00,,,0.00,weatherlink.com 1.10,2013-04-09 14:32:00,
2013-04-09 11:03:00,69.3,-99.9,30.00,SW,214,2.0,8.0,-999,0.00,,,0.00,weatherlink.com 1.10,2013-04-09 15:03:00,
2013-04-09 11:18:00,68.9,-99.9,30.00,SSW,206,3.0,11.0,-999,0.00,,,0.00,weatherlink.com 1.10,2013-04-09 15:18:00,
2013-04-09 11:33:00,69.3,-99.9,30.00,North,1,6.0,7.0,-999,0.00,,,0.00,weatherlink.com 1.10,2013-04-09 15:33:00,
2013-04-09 11:48:00,69.1,-99.9,30.01,North,360,4.0,8.0,-999,0.00,,,0.00,weatherlink.com 1.10,2013-04-09 15:48:00,
2013-04-09 12:03:00,68.9,-99.9,30.01,NNW,337,6.0,12.0,-999,0.00,,,0.00,weatherlink.com 1.10,2013-04-09 16:03:00,
2013-04-09 12:18:00,68.8,-99.9,30.01,WSW,250,2.0,9.0,-999,0.00,,,0.00,weatherlink.com 1.10,2013-04-09 16:18:00,
2013-04-09 12:33:00,68.8,-99.9,30.00,NNW,335,5.0,15.0,-999,0.00,,,0.00,weatherlink.com 1.10,2013-04-09 16:33:00,
2013-04-09 12:48:00,68.4,-99.9,30.00,NNW,339,2.0,9.0,-999,0.00,,,0.00,weatherlink.com 1.10,2013-04-09 16:48:00,
2013-04-09 13:03:00,67.8,-99.9,30.01,NNW,337,2.0,13.0,-999,0.00,,,0.00,weatherlink.com 1.10,2013-04-09 17:03:00,
2013-04-09 14:04:00,68.4,-99.9,30.01,WSW,239,4.0,8.0,-999,0.00,,,0.00,weatherlink.com 1.10,2013-04-09 18:04:00,
2013-04-09 14:34:00,69.8,-99.9,30.01,NNW,335,5.0,8.0,-999,0.00,,,0.00,weatherlink.com 1.10,2013-04-09 18:34:00,
2013-04-09 14:49:00,70.1,-99.9,30.00,WSW,243,2.0,6.0,-999,0.00,,,0.00,weatherlink.com 1.10,2013-04-09 18:49:00,
2013-04-09 15:04:00,70.8,-99.9,30.00,SW,220,3.0,5.0,-999,0.00,,,0.00,weatherlink.com 1.10,2013-04-09 19:04:00,
2013-04-09 15:19:00,70.9,-99.9,30.00,SW,219,5.0,7.0,-999,0.00,,,0.00,weatherlink.com 1.10,2013-04-09 19:19:00,
2013-04-09 15:49:00,70.8,-99.9,30.00,SSW,206,3.0,5.0,-999,0.00,,,0.00,weatherlink.com 1.10,2013-04-09 19:49:00,
2013-04-09 16:04:00,72.0,-99.9,29.99,SW,236,1.0,7.0,-999,0.00,,,0.00,weatherlink.com 1.10,2013-04-09 20:04:00,
2013-04-09 16:19:00,72.7,-99.9,29.98,North,353,3.0,6.0,-999,0.00,,,0.00,weatherlink.com 1.10,2013-04-09 20:19:00,
2013-04-09 16:34:00,73.0,-99.9,29.98,North,351,2.0,7.0,-999,0.00,,,0.00,weatherlink.com 1.10,2013-04-09 20:34:00,
2013-04-09 16:49:00,72.7,-99.9,29.99,WSW,246,5.0,7.0,-999,0.00,,,0.00,weatherlink.com 1.10,2013-04-09 20:49:00,
2013-04-09 17:04:00,72.7,-99.9,30.00,NNE,30,2.0,5.0,-999,0.00,,,0.00,weatherlink.com 1.10,2013-04-09 21:04:00,
2013-04-09 17:19:00,72.8,-99.9,29.99,NNW,342,0.0,5.0,-999,0.00,,,0.00,weatherlink.com 1.10,2013-04-09 21:19:00,
2013-04-09 17:35:00,73.0,-99.9,30.00,North,8,2.0,5.0,-999,0.00,,,0.00,weatherlink.com 1.10,2013-04-09 21:35:00,
2013-04-09 18:05:00,69.8,-99.9,29.99,ENE,63,1.0,3.0,-999,0.00,,,0.00,weatherlink.com 1.10,2013-04-09 22:05:00,
2013-04-09 18:20:00,68.8,-99.9,30.00,North,10,0.0,2.0,-999,0.00,,,0.00,weatherlink.com 1.10,2013-04-09 22:20:00,
2013-04-09 18:35:00,67.4,-99.9,30.00,NNE,13,0.0,2.0,-999,0.00,,,0.00,weatherlink.com 1.10,2013-04-09 22:35:00,
2013-04-09 18:50:00,66.3,-99.9,29.99,North,360,0.0,3.0,-999,0.00,,,0.00,weatherlink.com 1.10,2013-04-09 22:50:00,
2013-04-09 19:05:00,64.7,-99.9,30.00,NNW,340,2.0,3.0,-999,0.00,,,0.00,weatherlink.com 1.10,2013-04-09 23:05:00,
2013-04-09 19:20:00,63.4,-99.9,30.01,NNW,340,0.0,2.0,-999,0.00,,,0.00,weatherlink.com 1.10,2013-04-09 23:20:00,
2013-04-09 19:35:00,62.1,-99.9,30.01,NNW,340,0.0,1.0,-999,0.00,,,0.00,weatherlink.com 1.10,2013-04-09 23:35:00,
2013-04-09 19:50:00,61.0,-99.9,30.02,NNW,338,0.0,3.0,-999,0.00,,,0.00,weatherlink.com 1.10,2013-04-09 23:50:00,
2013-04-09 20:05:00,60.2,-99.9,30.01,NNW,333,2.0,3.0,-999,0.00,,,0.00,weatherlink.com 1.10,2013-04-10 00:05:00,
2013-04-09 20:20:00,59.9,-99.9,30.03,South,172,0.0,3.0,-999,0.00,,,0.00,weatherlink.com 1.10,2013-04-10 00:20:00,
2013-04-09 20:35:00,59.3,-99.9,30.02,WSW,240,0.0,2.0,-999,0.00,,,0.00,weatherlink.com 1.10,2013-04-10 00:35:00,
2013-04-09 20:50:00,58.7,-99.9,30.01,NNW,342,1.0,7.0,-999,0.00,,,0.00,weatherlink.com 1.10,2013-04-10 00:50:00,
2013-04-09 21:05:00,58.3,-99.9,30.02,North,350,1.0,6.0,-999,0.00,,,0.00,weatherlink.com 1.10,2013-04-10 01:05:00,
2013-04-09 21:20:00,58.0,-99.9,30.03,WSW,239,0.0,4.0,-999,0.00,,,0.00,weatherlink.com 1.10,2013-04-10 01:20:00,
2013-04-09 21:35:00,57.6,-99.9,30.02,NNW,338,1.0,4.0,-999,0.00,,,0.00,weatherlink.com 1.10,2013-04-10 01:35:00,
2013-04-09 21:50:00,57.3,-99.9,30.01,NW,324,0.0,2.0,-999,0.00,,,0.00,weatherlink.com 1.10,2013-04-10 01:50:00,
2013-04-09 22:05:00,57.3,-99.9,30.01,NE,37,0.0,3.0,-999,0.00,,,0.00,weatherlink.com 1.10,2013-04-10 02:05:00,
2013-04-09 22:20:00,57.0,-99.9,30.00,WNW,300,1.0,4.0,-999,0.00,,,0.00,weatherlink.com 1.10,2013-04-10 02:20:00,
2013-04-09 22:35:00,56.7,-99.9,29.99,NNW,346,1.0,4.0,-999,0.00,,,0.00,weatherlink.com 1.10,2013-04-10 02:35:00,
2013-04-09 22:50:00,56.3,-99.9,29.98,NNW,328,0.0,2.0,-999,0.00,,,0.00,weatherlink.com 1.10,2013-04-10 02:50:00,
2013-04-09 23:05:00,55.9,-99.9,29.98,NW,312,0.0,3.0,-999,0.00,,,0.00,weatherlink.com 1.10,2013-04-10 03:05:00,
2013-04-09 23:20:00,55.7,-99.9,29.98,WNW,297,0.0,1.0,-999,0.00,,,0.00,weatherlink.com 1.10,2013-04-10 03:20:00,
2013-04-09 23:35:00,55.7,-99.9,29.96,WNW,283,0.0,1.0,-999,0.00,,,0.00,weatherlink.com 1.10,2013-04-10 03:35:00,
2013-04-09 23:51:00,55.4,-99.9,29.96,WNW,283,1.0,1.0,-999,0.00,,,0.00,weatherlink.com 1.10,2013-04-10 03:51:00,